Home > Weather > Bristol > Past weeks

Flag for United Kingdom Past Weather in Bristol, England, United Kingdom — Yesterday and Last 2 Weeks

Now
48 °F

Cool.


Feels Like: 43 °F
Forecast: 43 / 56 °F
Wind: 12 mph from Northeast

Location: Bristol / Lulsgate

Current Time: May 25, 2016 at 12:30:21 AM

Latest Report: May 24, 2016 at 11:50 PM


Visibility: N/A

Pressure: 30.12 "Hg

Humidity: 82%

Dew Point: 43 °F

Location of BristolLocation

Past Weather in Bristol — Graph

°F

Bristol Temperature Yesterday

Maximum temperature yesterday: 61 °F (at 2:20 PM)
Minimum temperature yesterday: 45 °F (at 3:50 AM)
Average temperature yesterday: 53 °F

High & Low Weather Summary for the Past Weeks

 TemperatureHumidityPressure
High70 °F (May 12, 2:20 PM)100% (May 10, 12:50 AM)30.21 "Hg (May 10, 12:50 AM)
Low41 °F (May 14, 4:50 AM)44% (May 14, 4:50 PM)29.59 "Hg (May 11, 1:50 PM)
Average54 °F83%29.90 "Hg
* Reported May 9 11:20 PM — May 24 11:20 PM, Bristol, Weather by CustomWeather, © 2016

Note: Actual official high and low records may vary slightly from our data, if they occured in-between our weather recording intervals... More about our weather records

Advertising

Bristol Weather History for the Previous 24 Hours

Scroll right to see more
 ConditionsComfort  
Time TempWeatherWind HumidityBarometerVisibility
11:20 PM
Tue, May 24
48 °FCool.10 mph76%30.12 "HgN/A
10:50 PM50 °FCool.9 mph71%30.12 "HgN/A
10:20 PM52 °FCool.13 mph67%30.09 "HgN/A
9:50 PM52 °FCool.13 mph67%30.09 "HgN/A
9:20 PM52 °FCool.12 mph67%30.09 "HgN/A
8:50 PM54 °FCool.10 mph63%30.09 "HgN/A
8:20 PM55 °FCool.13 mph63%30.09 "HgN/A
7:50 PM55 °FPassing clouds.13 mph59%30.09 "HgN/A
7:20 PM57 °FPassing clouds.15 mph55%30.09 "HgN/A
6:50 PM57 °FRefreshingly cool.17 mph55%30.09 "HgN/A
6:20 PM57 °FPartly sunny.17 mph55%30.09 "HgN/A
5:50 PM59 °FPartly sunny.17 mph51%30.09 "HgN/A
5:20 PM59 °FPartly sunny.16 mph55%30.09 "HgN/A
4:50 PM61 °FScattered clouds.18 mph48%30.12 "HgN/A
4:20 PM61 °FPartly sunny.15 mph48%30.12 "HgN/A
3:50 PM59 °FPartly sunny.16 mph51%30.12 "HgN/A
3:20 PM61 °FPartly sunny.15 mph48%30.12 "HgN/A
2:50 PM61 °FPartly sunny.16 mph52%30.12 "HgN/A
2:20 PM61 °FPartly sunny.14 mph52%30.12 "HgN/A
1:50 PM59 °FPartly sunny.15 mph55%30.15 "HgN/A
1:20 PM59 °FRefreshingly cool.14 mph51%30.15 "HgN/A
12:50 PM59 °FRefreshingly cool.15 mph51%30.15 "HgN/A
12:20 PM59 °FPassing clouds.15 mph55%30.15 "HgN/A
11:50 AM57 °FRefreshingly cool.15 mph55%30.15 "HgN/A
11:20 AM57 °FRefreshingly cool.13 mph59%30.18 "HgN/A
10:50 AM57 °FRefreshingly cool.14 mph59%30.18 "HgN/A
10:20 AM55 °FCool.14 mph63%30.18 "HgN/A
9:50 AM54 °FCool.14 mph67%30.18 "HgN/A
9:20 AM54 °FCool.13 mph72%30.18 "HgN/A
8:50 AM52 °FCool.13 mph77%30.18 "HgN/A
8:20 AM52 °FCool.14 mph77%30.18 "HgN/A
7:50 AM48 °FCool.13 mph87%30.18 "HgN/A
7:20 AM48 °FCool.13 mph87%30.18 "HgN/A
6:50 AM46 °FCool.13 mph93%30.18 "HgN/A
6:20 AM46 °FCool.13 mph93%30.18 "HgN/A
5:50 AM46 °FCool.10 mph93%30.18 "HgN/A
5:20 AM46 °FCool.10 mph93%30.15 "HgN/A
4:50 AM46 °FCool.10 mph87%30.15 "HgN/A
4:20 AM46 °FCool.10 mph87%30.15 "HgN/A
3:50 AM45 °FQuite cool.10 mph93%30.15 "HgN/A
3:20 AM46 °FCool.12 mph87%30.15 "HgN/A
2:50 AM46 °FCool.10 mph87%30.18 "HgN/A
2:20 AM46 °FCool.8 mph87%30.18 "HgN/A
1:50 AM46 °FCool.7 mph87%30.18 "HgN/A
1:20 AM48 °FCool.10 mph82%30.18 "HgN/A
12:50 AM50 °FCool.10 mph76%30.18 "HgN/A
12:20 AM50 °FCool.10 mph76%30.18 "HgN/A
Weather by CustomWeather, © 2016

See weather overviewHow to use our weather pages